KC1SQ Weather Reports


time (UTC)temp
C
wind
direction
speed
KPH
gust
KPH
rain 1hr
cm
rain 24hr
cm
rain mn
cm
humidity
%
barometer
mb
20260505214213 22 152 1.6 14.5 0.00 0.00 0.00 37 1002.7
20260505213707 23 125 3.2 14.5 0.00 0.00 0.00 36 1002.7
20260505213201 23 194 1.6 9.7 0.00 0.00 0.00 36 1002.6
20260505212655 23 188 1.6 8.0 0.00 0.00 0.00 36 1002.6
20260505212149 23 167 1.6 8.0 0.00 0.00 0.00 36 1002.6
20260505211643 24 201 1.6 12.9 0.00 0.00 0.00 35 1002.4
20260505211138 24 175 3.2 14.5 0.00 0.00 0.00 34 1002.5
20260505210631 25 123 3.2 16.1 0.00 0.00 0.00 33 1002.4
20260505210125 25 170 3.2 14.5 0.00 0.00 0.00 34 1002.4
20260505205619 25 180 3.2 14.5 0.00 0.00 0.00 34 1002.3
20260505205113 25 164 3.2 16.1 0.00 0.00 0.00 34 1002.3
20260505204606 25 126 3.2 16.1 0.00 0.00 0.00 34 1002.3
20260505204102 25 157 3.2 16.1 0.00 0.00 0.00 34 1002.3
20260505203555 25 125 3.2 16.1 0.00 0.00 0.00 33 1002.4
20260505203308 25 149 1.6 9.7 0.00 0.00 0.00 33 1002.4
20260505202543 25 218 1.6 17.7 0.00 0.00 0.00 34 1002.4
20260505202037 24 155 1.6 17.7 0.00 0.00 0.00 35 1002.6
20260505201531 24 173 1.6 11.3 0.00 0.00 0.00 34 1002.5
20260505201025 24 115 3.2 11.3 0.00 0.00 0.00 34 1002.6
20260505200519 25 157 3.2 14.5 0.00 0.00 0.00 34 1002.7
20260505200014 25 89 3.2 14.5 0.00 0.00 0.00 33 1002.7
20260505195507 25 152 3.2 11.3 0.00 0.00 0.00 33 1002.6
20260505195457 25 155 4.8 12.9 0.00 0.00 0.00 33 1002.9
20260505194455 25 166 3.2 12.9 0.00 0.00 0.00 32 1003.0
20260505193948 26 176 1.6 12.9 0.00 0.00 0.00 32 1003.2
20260505193443 26 163 3.2 14.5 0.00 0.00 0.00 31 1003.0
20260505193159 25 161 3.2 12.9 0.00 0.00 0.00 32 1003.1
20260505192431 25 125 1.6 11.3 0.00 0.00 0.00 32 1003.0
20260505191925 25 152 1.6 11.3 0.00 0.00 0.00 33 1003.1
20260505191419 25 150 1.6 11.3 0.00 0.00 0.00 33 1003.3
20260505190913 25 141 1.6 6.4 0.00 0.00 0.00 33 1003.4
20260505190407 25 140 1.6 9.7 0.00 0.00 0.00 32 1003.6
20260505185902 25 163 1.6 8.0 0.00 0.00 0.00 31 1003.8
20260505185355 26 234 1.6 8.0 0.00 0.00 0.00 31 1003.8
20260505184849 26 184 3.2 12.9 0.00 0.00 0.00 29 1003.9
20260505184343 27 126 1.6 12.9 0.00 0.00 0.00 27 1003.9
20260505183837 28 160 1.6 9.7 0.00 0.00 0.00 26 1003.9
20260505183331 29 97 3.2 14.5 0.00 0.00 0.00 25 1004.0
20260505182825 29 143 4.8 17.7 0.00 0.00 0.00 24 1004.1
20260505182536 30 79 4.8 17.7 0.00 0.00 0.00 20 1003.9
20260505181813 29 214 3.2 16.1 0.00 0.00 0.00 21 1004.0
20260505181307 29 190 3.2 16.1 0.00 0.00 0.00 22 1003.9
20260505181019 29 272 3.2 12.9 0.00 0.00 0.00 23 1004.1
20260505180255 29 329 3.2 12.9 0.00 0.00 0.00 23 1004.1
20260505175749 29 142 3.2 16.1 0.00 0.00 0.00 22 1004.2
20260505175732 28 186 3.2 16.1 0.00 0.00 0.00 23 1004.2
20260505174737 28 207 3.2 9.7 0.00 0.00 0.00 24 1004.3
20260505174231 28 178 3.2 11.3 0.00 0.00 0.00 24 1004.3
20260505173950 28 239 4.8 14.5 0.00 0.00 0.00 24 1004.2
20260505173219 28 158 3.2 14.5 0.00 0.00 0.00 23 1004.2
20260505172719 28 242 3.2 12.9 0.00 0.00 0.00 24 1004.5
20260505172215 28 207 3.2 16.1 0.00 0.00 0.00 24 1004.5
20260505171715 28 180 4.8 16.1 0.00 0.00 0.00 25 1004.6
20260505171217 28 216 3.2 19.3 0.00 0.00 0.00 24 1004.7
20260505170715 28 238 1.6 19.3 0.00 0.00 0.00 25 1005.0
20260505170217 27 80 1.6 11.3 0.00 0.00 0.00 27 1005.1
20260505165716 27 155 1.6 11.3 0.00 0.00 0.00 26 1005.0
20260505165217 27 205 0.0 16.1 0.00 0.00 0.00 27 1005.3
20260505164714 27 183 1.6 16.1 0.00 0.00 0.00 28 1005.2
20260505164216 26 215 3.2 19.3 0.00 0.00 0.00 28 1005.2
20260505163712 26 111 3.2 19.3 0.00 0.00 0.00 27 1005.5
20260505163211 26 186 3.2 16.1 0.00 0.00 0.00 28 1005.6
20260505162710 26 195 3.2 16.1 0.00 0.00 0.00 28 1005.7
20260505162434 26 306 3.2 14.5 0.00 0.00 0.00 28 1005.9
20260505161709 26 179 3.2 19.3 0.00 0.00 0.00 29 1006.0
20260505161207 26 299 3.2 19.3 0.00 0.00 0.00 29 1005.9
20260505160708 26 190 1.6 14.5 0.00 0.00 0.00 29 1006.1
20260505160206 25 130 1.6 11.3 0.00 0.00 0.00 30 1006.1
20260505152703 24 156 1.6 9.7 0.00 0.00 0.00 33 1006.9
20260505152201 23 299 1.6 11.3 0.00 0.00 0.00 32 1006.9
20260505151703 23 302 1.6 11.3 0.00 0.00 0.00 33 1007.1
20260505151657 23 161 1.6 14.5 0.00 0.00 0.00 33 1007.1
20260505150659 22 213 3.2 14.5 0.00 0.00 0.00 34 1007.1
20260505150200 22 277 1.6 12.9 0.00 0.00 0.00 34 1007.2
20260505140416 20 209 0.0 6.4 0.00 0.00 0.00 37 1006.7
20260505124620 16 218 0.0 6.4 0.00 0.00 0.00 45 1007.6
20260505124119 16 233 0.0 0.0 0.00 0.00 0.00 45 1007.3
20260505123617 16 213 0.0 0.0 0.00 0.00 0.00 45 1007.2
20260505123115 16 83 0.0 0.0 0.00 0.00 0.00 45 1006.9
20260505122614 16 259 0.0 0.0 0.00 0.00 0.00 47 1007.0
20260505122112 15 214 0.0 0.0 0.00 0.00 0.00 47 1007.0
20260505121610 15 173 0.0 0.0 0.00 0.00 0.00 47 1006.9
20260505121108 15 163 0.0 0.0 0.00 0.00 0.00 48 1007.0
20260505120607 15 156 0.0 0.0 0.00 0.00 0.00 49 1007.0
20260505120104 14 108 0.0 0.0 0.00 0.00 0.00 49 1007.2
20260505115601 14 217 0.0 0.0 0.00 0.00 0.00 50 1007.3
20260505115101 13 184 0.0 0.0 0.00 0.00 0.00 51 1007.3
20260505114558 13 225 0.0 0.0 0.00 0.00 0.00 51 1007.3
20260505114056 13 257 0.0 0.0 0.00 0.00 0.00 52 1007.3
20260505113555 13 317 0.0 0.0 0.00 0.00 0.00 53 1007.3
20260505113316 12 239 0.0 0.0 0.00 0.00 0.00 54 1007.3
20260505112548 12 179 0.0 0.0 0.00 0.00 0.00 55 1007.4
20260505112042 12 232 0.0 0.0 0.00 0.00 0.00 57 1007.3
20260505111536 11 232 0.0 0.0 0.00 0.00 0.00 57 1007.4
20260505111031 11 232 0.0 0.0 0.00 0.00 0.00 59 1007.5
20260505110745 10 232 0.0 0.0 0.00 0.00 0.00 60 1007.6
20260505101930 8 276 0.0 0.0 0.00 0.00 0.00 65 1007.5
20260505101424 7 276 0.0 0.0 0.00 0.00 0.00 65 1007.4
20260505101142 7 276 0.0 0.0 0.00 0.00 0.00 65 1007.5
20260505100412 7 276 0.0 0.0 0.00 0.00 0.00 65 1007.3
20260505095906 7 276 0.0 0.0 0.00 0.00 0.00 65 1007.4
20260505095400 7 276 0.0 0.0 0.00 0.00 0.00 65 1007.5
20260505095330 7 276 0.0 0.0 0.00 0.00 0.00 65 1007.4
20260505094348 7 275 0.0 0.0 0.00 0.00 0.00 65 1007.4
20260505094111 7 275 0.0 0.0 0.00 0.00 0.00 64 1007.4
20260505093337 7 275 0.0 0.0 0.00 0.00 0.00 64 1007.4
20260505092830 7 275 0.0 0.0 0.00 0.00 0.00 64 1007.4
20260505092324 7 275 0.0 0.0 0.00 0.00 0.00 65 1007.4
20260505092257 7 275 0.0 0.0 0.00 0.00 0.00 65 1007.4
20260505091312 7 275 0.0 0.0 0.00 0.00 0.00 64 1007.4
20260505090806 7 275 0.0 0.0 0.00 0.00 0.00 65 1007.5
20260505090524 7 275 0.0 0.0 0.00 0.00 0.00 64 1007.5
20260505085754 8 275 0.0 0.0 0.00 0.00 0.00 64 1007.4
20260505085248 8 275 0.0 0.0 0.00 0.00 0.00 64 1007.5
20260505084742 8 275 0.0 0.0 0.00 0.00 0.00 64 1007.5
20260505084236 8 275 0.0 0.0 0.00 0.00 0.00 64 1007.7
20260505083730 8 275 0.0 0.0 0.00 0.00 0.00 64 1007.7
20260505083224 8 275 0.0 0.0 0.00 0.00 0.00 63 1007.7
20260505082718 8 275 0.0 0.0 0.00 0.00 0.00 63 1007.7
20260505082432 8 275 0.0 0.0 0.00 0.00 0.00 63 1007.7
20260505081706 8 275 0.0 0.0 0.00 0.00 0.00 63 1007.8
20260505081200 8 275 0.0 0.0 0.00 0.00 0.00 62 1007.8
20260505080654 8 275 0.0 0.0 0.00 0.00 0.00 62 1007.9
20260505080147 8 275 0.0 0.0 0.00 0.00 0.00 61 1007.9
20260505075644 9 275 0.0 0.0 0.00 0.00 0.00 61 1007.9
20260505075136 9 275 0.0 0.0 0.00 0.00 0.00 60 1007.9
20260505074629 9 275 0.0 0.0 0.00 0.00 0.00 60 1007.9
20260505074124 10 275 0.0 0.0 0.00 0.00 0.00 59 1007.9
20260505073619 10 275 0.0 0.0 0.00 0.00 0.00 59 1007.9
20260505073112 10 275 0.0 0.0 0.00 0.00 0.00 58 1007.9
20260505072606 10 275 0.0 0.0 0.00 0.00 0.00 58 1007.9
20260505072100 10 275 0.0 0.0 0.00 0.00 0.00 58 1007.8
20260505071554 10 275 0.0 0.0 0.00 0.00 0.00 57 1007.8
20260505071048 10 275 0.0 0.0 0.00 0.00 0.00 57 1007.7
20260505070542 10 275 0.0 0.0 0.00 0.00 0.00 56 1007.8
20260505070518 10 275 0.0 0.0 0.00 0.00 0.00 56 1007.8
20260505065530 10 278 0.0 0.0 0.00 0.00 0.00 56 1007.8
20260505065024 10 260 0.0 0.0 0.00 0.00 0.00 56 1007.8
20260505064748 11 159 0.0 0.0 0.00 0.00 0.00 55 1007.8
20260505064013 11 159 0.0 0.0 0.00 0.00 0.00 54 1007.9
20260505063506 11 159 0.0 0.0 0.00 0.00 0.00 54 1007.9
20260505063000 11 159 0.0 0.0 0.00 0.00 0.00 54 1007.8
20260505062454 11 195 0.0 0.0 0.00 0.00 0.00 54 1007.8
20260505061948 11 195 0.0 0.0 0.00 0.00 0.00 53 1007.8
20260505061442 11 196 0.0 0.0 0.00 0.00 0.00 53 1007.8
20260505060936 11 196 0.0 0.0 0.00 0.00 0.00 53 1007.8
20260505060430 11 196 0.0 0.0 0.00 0.00 0.00 53 1007.8
20260505055924 11 196 0.0 0.0 0.00 0.00 0.00 52 1007.9
20260505055639 12 182 0.0 0.0 0.00 0.00 0.00 52 1007.8
20260505054916 12 182 0.0 0.0 0.00 0.00 0.00 52 1007.9
20260505054412 12 250 0.0 0.0 0.00 0.00 0.00 52 1007.9
20260505053912 12 235 0.0 0.0 0.00 0.00 0.00 52 1007.9
20260505053409 12 235 0.0 0.0 0.00 0.00 0.00 52 1007.9
20260505052908 12 203 0.0 0.0 0.00 0.00 0.00 51 1007.9
20260505052405 12 203 0.0 0.0 0.00 0.00 0.00 50 1007.9
20260505051904 12 203 0.0 0.0 0.00 0.00 0.00 50 1007.9
20260505051401 12 203 0.0 0.0 0.00 0.00 0.00 49 1007.8
20260505050900 12 234 0.0 0.0 0.00 0.00 0.00 49 1007.9
20260505050359 12 118 0.0 0.0 0.00 0.00 0.00 49 1007.8
20260505050120 13 53 0.0 0.0 0.00 0.00 0.00 49 1007.8
20260505041400 13 215 0.0 0.0 0.00 0.00 0.00 48 1007.5
20260505040900 12 181 0.0 0.0 0.00 0.00 0.00 47 1007.5
20260505040359 13 181 0.0 0.0 0.00 0.00 0.00 47 1007.3
20260505035858 13 319 0.0 0.0 0.00 0.00 0.00 47 1007.3
20260505035352 13 212 0.0 0.0 0.00 0.00 0.00 47 1007.1
20260505034846 13 212 0.0 0.0 0.00 0.00 0.00 47 1007.1
20260505034340 12 247 0.0 0.0 0.00 0.00 0.00 47 1007.0
20260505033834 12 247 0.0 0.0 0.00 0.00 0.00 48 1007.0
20260505033328 12 254 0.0 0.0 0.00 0.00 0.00 48 1007.0
20260505032823 12 265 0.0 0.0 0.00 0.00 0.00 49 1007.0
20260505032316 11 273 0.0 0.0 0.00 0.00 0.00 50 1006.9
20260505031810 11 274 0.0 0.0 0.00 0.00 0.00 53 1006.9
20260505031304 11 142 0.0 0.0 0.00 0.00 0.00 54 1006.9
20260505030758 11 213 0.0 0.0 0.00 0.00 0.00 56 1006.9
20260505030252 11 213 0.0 0.0 0.00 0.00 0.00 56 1006.9
20260505025746 11 213 0.0 0.0 0.00 0.00 0.00 57 1006.9
20260505025241 11 213 0.0 0.0 0.00 0.00 0.00 57 1006.8
20260505024741 11 213 0.0 0.0 0.00 0.00 0.00 58 1006.9
20260505024239 11 213 0.0 0.0 0.00 0.00 0.00 57 1006.8
20260505023740 11 213 0.0 0.0 0.00 0.00 0.00 57 1006.8
20260505023239 11 213 0.0 0.0 0.00 0.00 0.00 57 1006.9
20260505022959 11 213 0.0 0.0 0.00 0.00 0.00 57 1006.8
20260505022239 11 213 0.0 0.0 0.00 0.00 0.00 57 1006.9
20260505021740 11 213 0.0 0.0 0.00 0.00 0.00 56 1006.9
20260505021239 11 213 0.0 0.0 0.00 0.00 0.00 57 1006.8
20260505021003 11 213 0.0 0.0 0.00 0.00 0.00 56 1006.8
20260505020236 11 213 0.0 0.0 0.00 0.00 0.00 57 1006.8
20260505015735 11 213 0.0 0.0 0.00 0.00 0.00 55 1006.7
20260505015235 11 213 0.0 0.0 0.00 0.00 0.00 56 1006.8
20260505014735 11 213 0.0 0.0 0.00 0.00 0.00 55 1006.7
20260505014235 12 213 0.0 0.0 0.00 0.00 0.00 55 1006.7
20260505013734 12 213 0.0 0.0 0.00 0.00 0.00 55 1006.6
20260505013331 12 213 0.0 0.0 0.00 0.00 0.00 55 1006.5
20260505012236 12 213 0.0 0.0 0.00 0.00 0.00 54 1006.4
20260505011732 12 213 0.0 0.0 0.00 0.00 0.00 54 1006.3
20260505011456 12 213 0.0 0.0 0.00 0.00 0.00 53 1006.2
20260505010731 12 213 0.0 0.0 0.00 0.00 0.00 53 1006.2
20260505010230 12 213 0.0 0.0 0.00 0.00 0.00 53 1006.2
20260505005952 12 213 0.0 0.0 0.00 0.00 0.00 52 1006.1
20260505005232 12 213 0.0 0.0 0.00 0.00 0.00 52 1006.2
20260505004732 13 213 0.0 0.0 0.00 0.00 0.00 51 1006.1
20260505004230 13 213 0.0 0.0 0.00 0.00 0.00 50 1006.1
20260505003732 13 213 0.0 0.0 0.00 0.00 0.00 50 1006.0
20260505003225 13 213 0.0 0.0 0.00 0.00 0.00 49 1005.8
20260505002718 14 213 0.0 0.0 0.00 0.00 0.00 48 1005.7
20260505002213 14 213 0.0 0.0 0.00 0.00 0.00 47 1005.7
20260505001707 15 213 0.0 0.0 0.00 0.00 0.00 47 1005.6
20260505001202 15 213 0.0 0.0 0.00 0.00 0.00 45 1005.5
20260505000655 15 213 0.0 0.0 0.00 0.00 0.00 44 1005.5
20260505000150 16 213 0.0 0.0 0.00 0.00 0.00 41 1005.4
20260504235643 16 213 0.0 0.0 0.00 0.00 0.00 40 1005.3
20260504235137 16 213 0.0 0.0 0.00 0.00 0.00 40 1005.4
20260504234631 17 213 0.0 0.0 0.00 0.00 0.00 38 1005.3
20260504234612 17 213 0.0 0.0 0.00 0.00 0.00 38 1005.3
20260504233619 17 213 0.0 0.0 0.00 0.00 0.00 32 1005.3
20260504233113 18 213 0.0 0.0 0.00 0.00 0.00 34 1005.2
20260504232607 18 213 0.0 0.0 0.00 0.00 0.00 33 1005.2
20260504232101 18 213 0.0 0.0 0.00 0.00 0.00 31 1005.1
20260504231555 19 213 0.0 0.0 0.00 0.00 0.00 28 1005.0
20260504231049 19 214 0.0 0.0 0.00 0.00 0.00 28 1004.9
20260504230541 19 213 0.0 0.0 0.00 0.00 0.00 27 1004.8
20260504230035 19 228 0.0 3.2 0.00 0.00 0.00 26 1004.7
20260504225529 20 246 0.0 3.2 0.00 0.00 0.00 26 1004.7
20260504225023 20 186 0.0 3.2 0.00 0.00 0.00 26 1004.6
20260504224517 20 243 0.0 9.7 0.00 0.00 0.00 26 1004.5
20260504224011 20 248 1.6 9.7 0.00 0.00 0.00 25 1004.6
20260504223505 20 185 1.6 8.0 0.00 0.00 0.00 25 1004.5
20260504222959 20 227 1.6 9.7 0.00 0.00 0.00 25 1004.6
20260504222453 20 192 1.6 9.7 0.00 0.00 0.00 25 1004.5
20260504222205 20 208 0.0 0.0 0.00 0.00 0.00 24 1004.5
20260504221441 21 338 0.0 0.0 0.00 0.00 0.00 25 1004.5
20260504220935 21 234 0.0 0.0 0.00 0.00 0.00 25 1004.6
20260504220429 21 296 1.6 9.7 0.00 0.00 0.00 24 1004.6
20260504215923 21 173 1.6 12.9 0.00 0.00 0.00 24 1004.6
20260504215417 21 224 1.6 12.9 0.00 0.00 0.00 22 1004.5
20260504215137 21 333 1.6 8.0 0.00 0.00 0.00 22 1004.5
20260504214902 21 306 1.6 8.0 0.00 0.00 0.00 23 1004.6